Terug naar catalogus

SL-12 R/B

AUX MOTOR

ActiefHEO
NORAD 14277·ROCKET BODY·🇷🇺 Russia

Gelanceerd Aug 10, 1983 vanaf Baikonur Cosmodrome

Loading…

Volgende Passages (komende 24 uur)

TLE

VersSource: Space-Track

Epoch: Sep 14, 2026, 10:15 UTC

1 14277U 83084G   26257.42745788  .00007026  00000-0  17695-2 0  9996
2 14277  51.9721 307.1031 5393580 199.1838 128.3319  4.95447048724099

Volg SL-12 R/B in realtime met AllMySat

Download on the App Store